SWA945 KDEN-KDEN

Flight info

Callsign SWA945
Flight time N/A
Altitude 30000
Route ZIMMR4 CHNGY EKR RACER PITTT2
Aircraft B737/M-SADE2E3GIJ4RWZ/LB1D1

Departure

Time 2026-05-06 02:31
Airport Denver International Airport (KDEN)

Arrival

Time N/A
Airport Denver International Airport (KDEN)
Time Latitude Longitude Altitude Speed Heading
2026-05-06 02:15 40.01261 -106.48185 27844 ft 333 kts 274°
2026-05-06 02:16 40.01395 -106.51210 27830 ft 333 kts 274°
2026-05-06 02:16 40.01528 -106.54229 27827 ft 333 kts 274°
2026-05-06 02:16 40.01658 -106.57078 27829 ft 333 kts 277°
2026-05-06 02:16 40.02310 -106.59951 27834 ft 333 kts 298°
2026-05-06 02:17 40.03776 -106.62298 27829 ft 340 kts 319°
2026-05-06 02:17 40.05871 -106.63782 27848 ft 349 kts 340°
2026-05-06 02:17 40.08177 -106.64170 27841 ft 359 kts 358°
2026-05-06 02:17 40.10668 -106.63695 27862 ft 364 kts
2026-05-06 02:18 40.13130 -106.62733 27833 ft 383 kts 24°
2026-05-06 02:18 40.15246 -106.60526 27877 ft 406 kts 47°
2026-05-06 02:18 40.16631 -106.57375 27567 ft 400 kts 68°
2026-05-06 02:18 40.17441 -106.53896 26843 ft 400 kts 71°
2026-05-06 02:19 40.18224 -106.50396 25907 ft 404 kts 71°
2026-05-06 02:19 40.19026 -106.46848 25068 ft 407 kts 72°
2026-05-06 02:19 40.19847 -106.43263 23973 ft 416 kts 72°
2026-05-06 02:19 40.20694 -106.39613 23016 ft 420 kts 72°
2026-05-06 02:20 40.22382 -106.32405 21616 ft 407 kts 71°
2026-05-06 02:20 40.23207 -106.28888 20917 ft 403 kts 71°
2026-05-06 02:20 40.24026 -106.25399 20209 ft 399 kts 71°
2026-05-06 02:21 40.24839 -106.21936 19512 ft 395 kts 71°
2026-05-06 02:21 40.25633 -106.18544 19158 ft 382 kts 71°
2026-05-06 02:21 40.26398 -106.15269 19054 ft 371 kts 71°
2026-05-06 02:21 40.27142 -106.12081 18942 ft 361 kts 71°
2026-05-06 02:22 40.27870 -106.08961 18931 ft 356 kts 71°
2026-05-06 02:22 40.28590 -106.05865 18955 ft 357 kts 71°
2026-05-06 02:22 40.29316 -106.02737 18960 ft 361 kts 71°
2026-05-06 02:22 40.30055 -105.99550 18947 ft 374 kts 71°
2026-05-06 02:23 40.30836 -105.96203 18973 ft 392 kts 71°
2026-05-06 02:23 40.31635 -105.92764 18969 ft 396 kts 71°
2026-05-06 02:23 40.32432 -105.89317 18943 ft 394 kts 71°
2026-05-06 02:23 40.33224 -105.85881 18951 ft 393 kts 71°
2026-05-06 02:24 40.34012 -105.82456 18955 ft 393 kts 71°
2026-05-06 02:24 40.34803 -105.79019 18955 ft 393 kts 71°
2026-05-06 02:24 40.35593 -105.75582 18961 ft 395 kts 72°
2026-05-06 02:24 40.36374 -105.72177 18980 ft 395 kts 72°
2026-05-06 02:25 40.37164 -105.68722 18953 ft 395 kts 71°
2026-05-06 02:25 40.37955 -105.65271 18956 ft 396 kts 71°
2026-05-06 02:25 40.38442 -105.61728 18971 ft 396 kts 89°
2026-05-06 02:25 40.38110 -105.58158 19016 ft 394 kts 103°
2026-05-06 02:26 40.37530 -105.54678 18980 ft 385 kts 104°
2026-05-06 02:26 40.36936 -105.51300 18989 ft 374 kts 104°
2026-05-06 02:26 40.36375 -105.48027 18997 ft 364 kts 104°
2026-05-06 02:26 40.35841 -105.44795 19021 ft 362 kts 103°
2026-05-06 02:27 40.35317 -105.41568 19017 ft 361 kts 103°
2026-05-06 02:27 40.34792 -105.38352 18745 ft 361 kts 105°
2026-05-06 02:27 40.33827 -105.35353 18273 ft 357 kts 128°
2026-05-06 02:27 40.32351 -105.32753 17811 ft 355 kts 131°
2026-05-06 02:28 40.30825 -105.30226 17347 ft 353 kts 132°
2026-05-06 02:28 40.29303 -105.27722 16988 ft 350 kts 132°
2026-05-06 02:28 40.27802 -105.25236 16625 ft 346 kts 131°
2026-05-06 02:28 40.26321 -105.22765 16226 ft 343 kts 131°
2026-05-06 02:29 40.24858 -105.20308 15871 ft 341 kts 130°
2026-05-06 02:29 40.23411 -105.17867 15514 ft 338 kts 130°
2026-05-06 02:29 40.21976 -105.15446 15166 ft 335 kts 130°
2026-05-06 02:29 40.20550 -105.13045 15065 ft 336 kts 130°
2026-05-06 02:30 40.19111 -105.10626 15043 ft 336 kts 130°
2026-05-06 02:30 40.17700 -105.08255 15032 ft 334 kts 130°
2026-05-06 02:30 40.16275 -105.05860 15031 ft 334 kts 130°
2026-05-06 02:30 40.14849 -105.03461 15034 ft 335 kts 131°
2026-05-06 02:31 40.13338 -105.01167 15023 ft 332 kts 137°
2026-05-06 02:31 40.11710 -104.99064 14889 ft 327 kts 140°
2026-05-06 02:31 40.10073 -104.97030 14587 ft 323 kts 140°
2026-05-06 02:31 40.08445 -104.94998 14159 ft 324 kts 139°
2026-05-06 02:32 40.06828 -104.92947 13783 ft 323 kts 139°
2026-05-06 02:32 40.05235 -104.90905 13414 ft 320 kts 138°
2026-05-06 02:32 40.03660 -104.88880 13094 ft 315 kts 138°
2026-05-06 02:32 40.02107 -104.86883 12946 ft 313 kts 138°
2026-05-06 02:33 40.00569 -104.84905 12700 ft 308 kts 138°
2026-05-06 02:33 39.99542 -104.83586 12429 ft 307 kts 138°
2026-05-06 02:33 39.95465 -104.80458 11648 ft 288 kts 178°
2026-05-06 02:34 39.93517 -104.80422 11589 ft 273 kts 183°
2026-05-06 02:34 39.92274 -104.80463 11524 ft 266 kts 184°
2026-05-06 02:34 39.90440 -104.80537 11432 ft 254 kts 184°
2026-05-06 02:34 39.88729 -104.80603 11337 ft 245 kts 184°
2026-05-06 02:35 39.87042 -104.80663 11115 ft 241 kts 183°
2026-05-06 02:35 39.85361 -104.80717 11052 ft 242 kts 183°
2026-05-06 02:35 39.83667 -104.80768 11015 ft 244 kts 183°
2026-05-06 02:35 39.81976 -104.80816 11008 ft 242 kts 183°
2026-05-06 02:36 39.80297 -104.80861 10967 ft 241 kts 182°
2026-05-06 02:36 39.78628 -104.80904 10952 ft 240 kts 183°
2026-05-06 02:36 39.76972 -104.80976 10784 ft 237 kts 183°
2026-05-06 02:36 39.75325 -104.81048 10472 ft 237 kts 182°
2026-05-06 02:37 39.73675 -104.81093 10182 ft 236 kts 180°
2026-05-06 02:37 39.72039 -104.81094 9928 ft 234 kts 179°
2026-05-06 02:37 39.70417 -104.81061 9613 ft 233 kts 178°
2026-05-06 02:37 39.68790 -104.81017 9285 ft 233 kts 178°
2026-05-06 02:38 39.67173 -104.80973 9010 ft 231 kts 178°
2026-05-06 02:38 39.65580 -104.80912 8979 ft 226 kts 174°
2026-05-06 02:38 39.64134 -104.80238 8974 ft 222 kts 141°
2026-05-06 02:38 39.63205 -104.78622 8975 ft 231 kts 109°
2026-05-06 02:39 39.63014 -104.76540 8990 ft 237 kts 89°
2026-05-06 02:39 39.63216 -104.74403 8980 ft 238 kts 86°
2026-05-06 02:39 39.63340 -104.72263 8963 ft 238 kts 83°
2026-05-06 02:39 39.64024 -104.70338 8967 ft 239 kts 46°
2026-05-06 02:40 39.65479 -104.69351 8970 ft 240 kts 12°
2026-05-06 02:40 39.67131 -104.69050 8982 ft 241 kts
2026-05-06 02:40 39.68814 -104.68917 8890 ft 245 kts
2026-05-06 02:40 39.70548 -104.68889 8591 ft 252 kts
2026-05-06 02:41 39.72310 -104.68879 8244 ft 253 kts
2026-05-06 02:41 39.74069 -104.68862 7899 ft 253 kts
2026-05-06 02:41 39.75810 -104.68842 7568 ft 254 kts
2026-05-06 02:41 39.77577 -104.68821 7225 ft 254 kts
2026-05-06 02:42 39.79328 -104.68800 6923 ft 246 kts
2026-05-06 02:42 39.80980 -104.68783 6611 ft 230 kts
2026-05-06 02:42 39.82523 -104.68764 6254 ft 214 kts
2026-05-06 02:42 39.83954 -104.68747 5916 ft 198 kts
2026-05-06 02:43 39.85265 -104.68731 5668 ft 178 kts
2026-05-06 02:43 39.86413 -104.68710 5688 ft 149 kts
2026-05-06 02:43 39.87350 -104.68654 6146 ft 137 kts
2026-05-06 02:43 39.88472 -104.68467 5969 ft 190 kts 10°
2026-05-06 02:44 39.89822 -104.68402 6591 ft 196 kts
2026-05-06 02:44 39.91235 -104.68441 6949 ft 213 kts
2026-05-06 02:44 39.92798 -104.68479 7119 ft 236 kts
2026-05-06 02:44 39.94523 -104.68512 7292 ft 259 kts
2026-05-06 02:45 39.96389 -104.68539 7595 ft 275 kts
2026-05-06 02:45 39.98325 -104.68557 8083 ft 281 kts
2026-05-06 02:45 40.00194 -104.67885 8589 ft 283 kts 34°
2026-05-06 02:45 40.01520 -104.66026 8999 ft 283 kts 63°
2026-05-06 02:46 40.02188 -104.63616 9019 ft 283 kts 76°
2026-05-06 02:46 40.02679 -104.61129 9003 ft 283 kts 77°
2026-05-06 02:46 40.03010 -104.58616 8986 ft 281 kts 94°
2026-05-06 02:46 40.02607 -104.56136 9019 ft 281 kts 107°
2026-05-06 02:47 40.02061 -104.53685 9008 ft 280 kts 107°
2026-05-06 02:47 40.01509 -104.51251 9002 ft 280 kts 107°
2026-05-06 02:47 40.00742 -104.48939 8981 ft 279 kts 129°
2026-05-06 02:47 39.99207 -104.47483 8998 ft 276 kts 162°
2026-05-06 02:48 39.97318 -104.47067 9011 ft 277 kts 175°
2026-05-06 02:48 39.95412 -104.46922 9003 ft 279 kts 177°
2026-05-06 02:48 39.93472 -104.46812 8995 ft 279 kts 177°
2026-05-06 02:48 39.91536 -104.46711 8984 ft 279 kts 177°
2026-05-06 02:49 39.89598 -104.46617 8990 ft 279 kts 177°
2026-05-06 02:49 39.87670 -104.46529 8984 ft 272 kts 177°
2026-05-06 02:49 39.85813 -104.46448 8981 ft 264 kts 177°
2026-05-06 02:49 39.83977 -104.46371 8998 ft 266 kts 177°
2026-05-06 02:50 39.82116 -104.46296 8997 ft 268 kts 177°
2026-05-06 02:50 39.80248 -104.46224 8995 ft 269 kts 177°
2026-05-06 02:50 39.78380 -104.46154 8993 ft 269 kts 177°
2026-05-06 02:50 39.76514 -104.46085 8998 ft 268 kts 177°
2026-05-06 02:51 39.74655 -104.46019 8985 ft 267 kts 177°
2026-05-06 02:51 39.72800 -104.45954 8982 ft 266 kts 177°
2026-05-06 02:51 39.70949 -104.45889 8977 ft 266 kts 177°
2026-05-06 02:51 39.69109 -104.45826 8957 ft 264 kts 177°
2026-05-06 02:52 39.67263 -104.45763 8967 ft 266 kts 177°
2026-05-06 02:52 39.65410 -104.45699 8963 ft 266 kts 177°
2026-05-06 02:52 39.63566 -104.45635 8967 ft 265 kts 177°
2026-05-06 02:52 39.61726 -104.45574 8959 ft 264 kts 177°
2026-05-06 02:53 39.59890 -104.45513 8957 ft 265 kts 177°
2026-05-06 02:53 39.58052 -104.45794 8938 ft 271 kts 202°
2026-05-06 02:53 39.56596 -104.47289 8840 ft 272 kts 234°
2026-05-06 02:53 39.55961 -104.49545 8491 ft 274 kts 262°
2026-05-06 02:54 39.55819 -104.52014 8059 ft 276 kts 266°
2026-05-06 02:54 39.55738 -104.54469 7964 ft 269 kts 267°
2026-05-06 02:54 39.55665 -104.56872 7959 ft 267 kts 267°
2026-05-06 02:54 39.55622 -104.59295 7961 ft 271 kts 275°
2026-05-06 02:55 39.56285 -104.61553 7947 ft 271 kts 310°
2026-05-06 02:55 39.57764 -104.62932 7949 ft 256 kts 345°
2026-05-06 02:55 39.59456 -104.63368 7891 ft 243 kts 351°
2026-05-06 02:55 39.61120 -104.63709 7658 ft 241 kts 360°
2026-05-06 02:56 39.62638 -104.63184 7695 ft 223 kts 40°
2026-05-06 02:56 39.63477 -104.61587 7729 ft 217 kts 79°
2026-05-06 02:56 39.63632 -104.59551 7940 ft 243 kts 87°
2026-05-06 02:56 39.63748 -104.57190 7972 ft 274 kts 87°
2026-05-06 02:57 39.63865 -104.54706 7951 ft 277 kts 87°
2026-05-06 02:57 39.63977 -104.52219 7944 ft 274 kts 87°
2026-05-06 02:57 39.64086 -104.49766 7942 ft 272 kts 87°
2026-05-06 02:57 39.64195 -104.47323 7942 ft 270 kts 87°
2026-05-06 02:58 39.64305 -104.44897 7946 ft 269 kts 87°
2026-05-06 02:58 39.64415 -104.42475 7946 ft 269 kts 87°
2026-05-06 02:58 39.64527 -104.40084 7945 ft 269 kts 87°
2026-05-06 02:58 39.64643 -104.37663 7950 ft 269 kts 87°
2026-05-06 02:59 39.64705 -104.35242 7941 ft 268 kts 98°
2026-05-06 02:59 39.63969 -104.33071 7997 ft 268 kts 133°
2026-05-06 02:59 39.62343 -104.31877 8627 ft 276 kts 169°
2026-05-06 02:59 39.60529 -104.31909 9796 ft 273 kts 186°
2026-05-06 03:00 39.58623 -104.32208 10546 ft 279 kts 187°
2026-05-06 03:00 39.56696 -104.32499 10890 ft 281 kts 187°
2026-05-06 03:00 39.54748 -104.32771 10923 ft 284 kts 187°
2026-05-06 03:00 39.52782 -104.33041 10939 ft 284 kts 187°
2026-05-06 03:01 39.50821 -104.33360 10939 ft 283 kts 189°
2026-05-06 03:01 39.48871 -104.33716 10946 ft 284 kts 189°
2026-05-06 03:01 39.46914 -104.34073 10943 ft 284 kts 189°
2026-05-06 03:01 39.44956 -104.34423 10938 ft 284 kts 189°
2026-05-06 03:02 39.42992 -104.34769 10934 ft 288 kts 189°
2026-05-06 03:02 39.40904 -104.35133 10966 ft 315 kts 189°
2026-05-06 03:02 39.38705 -104.35512 10930 ft 321 kts 189°
2026-05-06 03:02 39.36494 -104.35888 10916 ft 320 kts 188°
2026-05-06 03:03 39.34289 -104.36261 10915 ft 319 kts 189°
2026-05-06 03:03 39.32091 -104.36632 10913 ft 320 kts 189°
2026-05-06 03:03 39.29917 -104.36999 10909 ft 316 kts 189°
2026-05-06 03:03 39.27781 -104.37358 10894 ft 302 kts 189°
2026-05-06 03:04 39.25744 -104.37700 10899 ft 289 kts 189°
2026-05-06 03:04 39.23768 -104.38033 10927 ft 285 kts 189°
2026-05-06 03:04 39.21800 -104.38362 10925 ft 285 kts 188°
2026-05-06 03:04 39.19821 -104.38576 10931 ft 286 kts 185°
2026-05-06 03:05 39.17832 -104.38677 10947 ft 287 kts 184°
2026-05-06 03:05 39.15837 -104.38756 10947 ft 287 kts 184°
2026-05-06 03:05 39.13843 -104.38836 10949 ft 286 kts 184°
2026-05-06 03:05 39.11857 -104.38921 10946 ft 286 kts 184°
2026-05-06 03:06 39.09872 -104.38958 10959 ft 285 kts 184°
2026-05-06 03:06 39.07888 -104.39057 10956 ft 286 kts 185°
2026-05-06 03:06 39.05898 -104.39175 10966 ft 287 kts 185°
2026-05-06 03:06 39.03907 -104.39287 10965 ft 287 kts 185°
2026-05-06 03:07 39.01911 -104.39392 10966 ft 287 kts 184°
2026-05-06 03:07 38.99914 -104.39492 10970 ft 287 kts 184°
2026-05-06 03:07 38.97917 -104.39591 10975 ft 287 kts 184°
2026-05-06 03:07 38.95922 -104.39689 10971 ft 287 kts 185°
2026-05-06 03:08 38.93953 -104.39786 10964 ft 287 kts 184°
2026-05-06 03:08 38.91963 -104.39884 10974 ft 286 kts 184°
2026-05-06 03:08 38.89978 -104.39981 10976 ft 285 kts 184°
2026-05-06 03:08 38.87994 -104.40060 10968 ft 285 kts 181°
2026-05-06 03:09 38.86007 -104.39915 10974 ft 286 kts 178°
2026-05-06 03:09 38.84020 -104.39699 10963 ft 287 kts 177°
2026-05-06 03:09 38.82034 -104.39473 10962 ft 286 kts 177°
2026-05-06 03:09 38.80052 -104.39243 10967 ft 286 kts 177°
2026-05-06 03:10 38.78082 -104.39009 10890 ft 282 kts 177°
2026-05-06 03:10 38.76143 -104.38777 10599 ft 279 kts 177°
2026-05-06 03:10 38.74207 -104.38556 10169 ft 279 kts 177°
2026-05-06 03:10 38.72275 -104.38353 9795 ft 278 kts 177°
2026-05-06 03:11 38.70361 -104.38175 9406 ft 275 kts 180°
2026-05-06 03:11 38.68539 -104.38750 9041 ft 273 kts 213°
2026-05-06 03:11 38.67310 -104.40564 9037 ft 278 kts 245°
2026-05-06 03:11 38.67028 -104.43041 8986 ft 289 kts 277°
2026-05-06 03:12 38.67824 -104.45379 8987 ft 291 kts 309°
2026-05-06 03:12 38.69464 -104.46852 8980 ft 292 kts 341°
2026-05-06 03:12 38.71459 -104.47280 8995 ft 293 kts 355°
2026-05-06 03:12 38.73506 -104.47429 8997 ft 296 kts 356°
2026-05-06 03:13 38.75566 -104.47535 8993 ft 297 kts 357°
2026-05-06 03:13 38.77636 -104.47630 8981 ft 298 kts 357°
2026-05-06 03:13 38.79714 -104.47722 8986 ft 298 kts 357°
2026-05-06 03:13 38.81786 -104.47811 8989 ft 298 kts 357°
2026-05-06 03:14 38.83854 -104.47897 8985 ft 297 kts 357°
2026-05-06 03:14 38.85914 -104.47982 8991 ft 296 kts 357°
2026-05-06 03:14 38.87970 -104.48064 8993 ft 295 kts 357°
2026-05-06 03:14 38.90021 -104.48146 8989 ft 294 kts 357°
2026-05-06 03:15 38.92061 -104.48226 8987 ft 293 kts 357°
2026-05-06 03:15 38.94095 -104.48304 8989 ft 293 kts 357°
2026-05-06 03:15 38.96132 -104.48382 9002 ft 293 kts 357°
2026-05-06 03:15 38.98152 -104.48458 8990 ft 285 kts 357°
2026-05-06 03:16 39.00047 -104.48814 8899 ft 269 kts 333°
2026-05-06 03:16 39.01374 -104.50289 8999 ft 242 kts 296°
2026-05-06 03:16 39.01782 -104.52370 9000 ft 238 kts 269°
2026-05-06 03:16 39.01796 -104.54422 8988 ft 219 kts 268°
2026-05-06 03:17 39.01800 -104.56269 8973 ft 197 kts 268°
2026-05-06 03:17 39.01805 -104.57981 8992 ft 188 kts 268°
2026-05-06 03:17 39.01807 -104.59761 9045 ft 211 kts 267°
2026-05-06 03:17 39.01800 -104.61645 8993 ft 208 kts 267°
2026-05-06 03:18 39.01794 -104.63498 9002 ft 206 kts 267°
2026-05-06 03:18 39.01789 -104.65338 8999 ft 205 kts 267°
2026-05-06 03:18 39.01428 -104.67052 8991 ft 203 kts 230°
2026-05-06 03:18 39.00255 -104.67987 9011 ft 203 kts 192°
2026-05-06 03:19 38.98850 -104.68248 8993 ft 202 kts 188°
2026-05-06 03:19 38.97502 -104.68453 8977 ft 189 kts 185°
2026-05-06 03:19 38.96223 -104.68530 8979 ft 181 kts 182°
2026-05-06 03:19 38.94972 -104.68549 8898 ft 181 kts 181°
2026-05-06 03:20 38.92419 -104.68556 8465 ft 183 kts 180°
2026-05-06 03:20 38.91152 -104.68557 8183 ft 180 kts 180°
2026-05-06 03:20 38.89938 -104.68559 7932 ft 171 kts 180°
2026-05-06 03:21 38.88779 -104.68561 7703 ft 164 kts 179°
2026-05-06 03:21 38.87683 -104.68566 7433 ft 152 kts 179°
2026-05-06 03:21 38.86653 -104.68567 7243 ft 146 kts 179°
2026-05-06 03:21 38.85627 -104.68567 7061 ft 150 kts 179°
2026-05-06 03:22 38.84573 -104.68568 6851 ft 152 kts 178°
2026-05-06 03:22 38.83516 -104.68571 6646 ft 152 kts 179°
2026-05-06 03:22 38.82447 -104.68573 6425 ft 156 kts 179°
2026-05-06 03:22 38.81351 -104.68574 6233 ft 155 kts 179°
2026-05-06 03:23 38.80396 -104.68573 6194 ft 106 kts 181°
2026-05-06 03:23 38.79845 -104.68577 6193 ft 57 kts 180°
2026-05-06 03:23 38.79531 -104.68577 6190 ft 41 kts 180°
2026-05-06 03:23 38.79283 -104.68614 6191 ft 32 kts 197°
2026-05-06 03:24 38.79180 -104.68670 6191 ft 0 kts 208°
2026-05-06 03:24 38.79176 -104.68673 6192 ft 5 kts 209°
2026-05-06 03:24 38.79136 -104.68713 6192 ft 10 kts 237°
2026-05-06 03:25 38.79173 -104.68789 6193 ft 15 kts 353°
2026-05-06 03:25 38.79295 -104.68790 6191 ft 20 kts
2026-05-06 03:25 38.79448 -104.68790 6192 ft 24 kts
2026-05-06 03:25 38.79621 -104.68790 6192 ft 25 kts
2026-05-06 03:26 38.79789 -104.68788 6193 ft 23 kts 360°
2026-05-06 03:26 38.79947 -104.68789 6193 ft 22 kts
2026-05-06 03:26 38.80049 -104.68789 6193 ft 22 kts
2026-05-06 03:26 38.80245 -104.68792 6193 ft 20 kts 344°
2026-05-06 03:27 38.80279 -104.68888 6193 ft 19 kts 268°
2026-05-06 03:27 38.80278 -104.69057 6193 ft 19 kts 270°
2026-05-06 03:27 38.80279 -104.69221 6193 ft 18 kts 270°
2026-05-06 03:27 38.80279 -104.69379 6193 ft 17 kts 270°
2026-05-06 03:28 38.80279 -104.69532 6193 ft 17 kts 269°
2026-05-06 03:28 38.80277 -104.69679 6193 ft 16 kts 261°
2026-05-06 03:28 38.80184 -104.69723 6193 ft 16 kts 179°
2026-05-06 03:28 38.80084 -104.69750 6193 ft 15 kts 235°
2026-05-06 03:29 38.80076 -104.69878 6193 ft 14 kts 268°
2026-05-06 03:29 38.80002 -104.69932 6193 ft 14 kts 180°
2026-05-06 03:29 38.79922 -104.69937 6193 ft 9 kts 195°
2026-05-06 03:29 38.79889 -104.69999 6193 ft 9 kts 268°
2026-05-06 03:30 38.79889 -104.70033 6193 ft 0 kts 270°